{"data":{"norad_id":62381,"epoch":"2026-09-21T00:36:43.868736Z","epoch_age_seconds":266623,"freshness":"STALE","line1":"1 62381U 24247E   26264.02550774  .00004551  00000+0  15701-3 0  9990","line2":"2 62381  45.0024 123.2828 0002367  48.4819 311.6269 15.31427708 97692","mean_motion":15.31427708,"eccentricity":0.0002367,"inclination_deg":45.0024,"raan_deg":123.2828,"arg_perigee_deg":48.4819,"mean_anomaly_deg":311.6269,"bstar":0.00015701,"rev_number":9769,"period_min":94.02990376089,"perigee_km":469.93048243348,"apogee_km":473.17312511319,"semimajor_km":6849.6888037733,"source":"CELESTRAK","updated_at":"2026-09-23T09:00:21.391613Z"}}